Date String (YYYY-MM-DD hh:mm:ss) UTC,Instrument flags,absolute air pressure of the measurement (hPa),sample flow rate (lpm),inlet stack bypass flow (lpm),air temperature of the measurement (°C),ambient temperature measured by the external sensor (°C),aerosol sample conditioner tube jacket temperature (°C),OPC LED temperature (°C),internal box temperature (°C),relative humidity of the measurement (%),span deviation,mass concentration of particles derived from Lorenz-Mie calculation of OPC scattering (μg/m³),mass concentration of particles derived from Lorenz-Mie calculation of OPC scattering (μg/m³),mass concentration of particles derived from Lorenz-Mie calculation of OPC scattering (μg/m³)
DateTimeUTC,F1_M11,P_M11,Q1_M11,Q2_M11,T1_M11,T2_M11,T3_M11,T4_M11,T5_M11,U1_M11,ZSPAN_M11,X0_M11,X2_M11,X1_M11
2023-09-02 16:00:00,SystemResetWarning,0834.5,5.00,000.00,027.8,025.8,000.0,036.2,029.4,30.1,0000.0,0014.11,0004.51,0003.69
2023-09-02 16:01:00,SystemResetWarning,0834.3,5.00,000.00,027.9,026.2,000.0,036.2,029.5,29.8,0000.0,0013.54,0004.46,0003.68
2023-09-02 16:02:00,SystemResetWarning,0834.3,5.00,000.00,027.9,026.5,000.0,036.2,029.6,28.4,0000.0,0013.45,0004.48,0003.69
2023-09-02 16:03:00,SystemResetWarning,0834.4,5.00,000.00,028.0,026.7,000.0,036.3,029.7,28.5,0000.0,0013.19,0004.50,0003.70
2023-09-02 16:04:00,SystemResetWarning,0834.3,4.99,000.00,028.0,026.2,000.0,036.2,029.5,28.5,0000.0,0012.66,0004.54,0003.71
2023-09-02 16:05:00,SystemResetWarning,0834.7,4.99,000.00,027.9,024.9,000.0,036.1,029.2,28.3,0000.0,0011.77,0004.54,0003.71
2023-09-02 16:06:00,SystemResetWarning,0834.3,5.02,000.00,027.9,024.6,000.0,036.1,029.2,28.4,0000.0,0011.21,0004.55,0003.71
2023-09-02 16:07:00,SystemResetWarning,0834.4,5.00,000.00,027.8,024.9,000.0,036.1,029.1,29.1,0000.0,0010.51,0004.51,0003.71
2023-09-02 16:08:00,SystemResetWarning,0834.3,4.99,000.00,027.8,025.3,000.0,036.1,029.2,29.2,0000.0,0010.62,0004.49,0003.71
2023-09-02 16:09:00,SystemResetWarning,0834.4,5.00,000.00,027.8,025.7,000.0,036.1,029.4,29.0,0000.0,0010.49,0004.52,0003.72
2023-09-02 16:10:00,SystemResetWarning,0834.4,5.00,000.00,027.9,026.1,000.0,036.2,029.5,28.6,0000.0,0009.51,0004.48,0003.71
2023-09-02 16:11:00,SystemResetWarning,0834.7,5.00,000.00,027.9,026.4,000.0,036.2,029.6,26.6,0000.0,0009.33,0004.48,0003.70
2023-09-02 16:12:00,SystemResetWarning,0834.4,5.00,000.00,028.0,026.7,000.0,036.2,029.7,27.0,0000.0,0009.54,0004.51,0003.71
2023-09-02 16:13:00,SystemResetWarning,0834.4,5.00,000.00,028.0,026.3,000.0,036.2,029.5,28.2,0000.0,0009.56,0004.50,0003.71
2023-09-02 16:14:00,SystemResetWarning,0834.3,4.98,000.00,027.9,025.0,000.0,036.1,029.1,28.1,0000.0,0009.81,0004.51,0003.71
2023-09-02 16:15:00,SystemResetWarning,0834.3,5.01,000.00,027.8,024.7,000.0,036.1,029.1,27.4,0000.0,0010.29,0004.51,0003.71
2023-09-02 16:16:00,SystemResetWarning,0834.2,5.01,000.00,027.8,025.0,000.0,036.1,029.2,27.3,0000.0,0010.43,0004.53,0003.72
2023-09-02 16:17:00,SystemResetWarning,0834.5,5.00,000.00,027.8,025.3,000.0,036.1,029.2,27.4,0000.0,0011.33,0004.59,0003.73
2023-09-02 16:18:00,SystemResetWarning,0834.2,4.99,000.00,027.8,025.7,000.0,036.1,029.4,28.5,0000.0,0011.56,0004.60,0003.75
2023-09-02 16:19:00,SystemResetWarning,0834.4,5.00,000.00,027.9,026.1,000.0,036.1,029.5,28.6,0000.0,0011.75,0004.65,0003.76
2023-09-02 16:20:00,SystemResetWarning,0834.3,5.00,000.00,027.9,026.4,000.0,036.2,029.6,27.6,0000.0,0011.69,0004.63,0003.77
2023-09-02 16:21:00,SystemResetWarning,0834.8,5.00,000.00,028.0,026.7,000.0,036.2,029.7,27.7,0000.0,0011.45,0004.66,0003.79
2023-09-02 16:22:00,SystemResetWarning,0834.4,4.99,000.00,028.0,026.3,000.0,036.2,029.6,27.1,0000.0,0011.64,0004.68,0003.80
2023-09-02 16:23:00,SystemResetWarning,0834.4,4.99,000.00,027.9,025.1,000.0,036.1,029.1,26.5,0000.0,0011.74,0004.71,0003.82
2023-09-02 16:24:00,SystemResetWarning,0834.5,5.02,000.00,027.8,024.6,000.0,036.0,029.1,27.3,0000.0,0012.58,0004.74,0003.82
2023-09-02 16:25:00,SystemResetWarning,0834.4,5.00,000.00,027.8,024.9,000.0,036.0,029.1,27.4,0000.0,0012.24,0004.76,0003.84
2023-09-02 16:26:00,SystemResetWarning,0834.4,4.99,000.00,027.8,025.3,000.0,036.1,029.2,27.5,0000.0,0011.44,0004.73,0003.85
2023-09-02 16:27:00,SystemResetWarning,0834.3,5.00,000.00,027.8,025.7,000.0,036.1,029.4,27.1,0000.0,0011.54,0004.69,0003.86
2023-09-02 16:28:00,SystemResetWarning,0834.2,5.01,000.00,027.8,026.0,000.0,036.1,029.5,27.0,0000.0,0011.04,0004.63,0003.86
2023-09-02 16:29:00,SystemResetWarning,0834.3,5.00,000.00,027.9,026.4,000.0,036.1,029.6,26.4,0000.0,0010.74,0004.59,0003.85
2023-09-02 16:30:00,SystemResetWarning,0834.3,5.00,000.00,027.9,026.6,000.0,036.2,029.7,26.3,0000.0,0010.44,0004.56,0003.85
2023-09-02 16:31:00,SystemResetWarning,0834.3,4.99,000.00,028.0,026.4,000.0,036.2,029.6,26.4,0000.0,0010.46,0004.55,0003.84
2023-09-02 16:32:00,SystemResetWarning,0834.4,4.99,000.00,027.9,025.1,000.0,036.1,029.2,26.7,0000.0,0010.56,0004.56,0003.83
2023-09-02 16:33:00,SystemResetWarning,0834.3,5.01,000.00,027.8,024.6,000.0,036.0,029.1,27.5,0000.0,0011.55,0004.58,0003.83
2023-09-02 16:34:00,SystemResetWarning,0834.4,5.00,000.00,027.8,024.8,000.0,036.0,029.1,27.1,0000.0,0011.80,0004.53,0003.81
2023-09-02 16:35:00,SystemResetWarning,0834.3,5.00,000.00,027.7,025.2,000.0,036.1,029.2,27.0,0000.0,0010.85,0004.50,0003.79
2023-09-02 16:36:00,SystemResetWarning,0834.3,5.00,000.00,027.8,025.6,000.0,036.1,029.3,27.2,0000.0,0010.63,0004.42,0003.76
2023-09-02 16:37:00,SystemResetWarning,0834.3,5.01,000.00,027.8,026.0,000.0,036.1,029.4,27.5,0000.0,0010.66,0004.42,0003.74
2023-09-02 16:38:00,SystemResetWarning,0834.3,5.00,000.00,027.9,026.3,000.0,036.1,029.5,27.2,0000.0,0010.47,0004.42,0003.71
2023-09-02 16:39:00,SystemResetWarning,0834.3,5.00,000.00,027.9,026.6,000.0,036.2,029.7,27.0,0000.0,0010.22,0004.42,0003.70
2023-09-02 16:40:00,SystemResetWarning,0834.4,4.99,000.00,028.0,026.4,000.0,036.1,029.6,26.8,0000.0,0010.93,0004.40,0003.69
2023-09-02 16:41:00,SystemResetWarning,0834.4,4.99,000.00,027.9,025.1,000.0,036.1,029.2,27.1,0000.0,0011.24,0004.37,0003.67
2023-09-02 16:42:00,SystemResetWarning,0834.3,5.01,000.00,027.8,024.6,000.0,036.0,029.0,27.0,0000.0,0011.40,0004.36,0003.67
2023-09-02 16:43:00,SystemResetWarning,0834.3,5.00,000.00,027.7,024.8,000.0,036.0,029.1,27.3,0000.0,0011.79,0004.35,0003.66
2023-09-02 16:44:00,SystemResetWarning,0834.4,4.99,000.00,027.7,025.2,000.0,036.0,029.2,27.2,0000.0,0010.86,0004.31,0003.65
2023-09-02 16:45:00,SystemResetWarning,0834.4,5.00,000.00,027.7,025.5,000.0,036.0,029.3,28.1,0000.0,0010.13,0004.32,0003.67
2023-09-02 16:46:00,SystemResetWarning,0834.4,5.01,000.00,027.8,025.9,000.0,036.1,029.4,28.6,0000.0,0010.52,0004.36,0003.68
2023-09-02 16:47:00,SystemResetWarning,0834.4,5.00,000.00,027.8,026.3,000.0,036.1,029.5,28.5,0000.0,0010.67,0004.38,0003.67
2023-09-02 16:48:00,SystemResetWarning,0834.4,4.99,000.00,027.9,026.6,000.0,036.1,029.6,28.2,0000.0,0011.26,0004.38,0003.67
2023-09-02 16:49:00,SystemResetWarning,0834.4,4.99,000.00,027.9,026.4,000.0,036.1,029.6,28.0,0000.0,0011.25,0004.37,0003.66
2023-09-02 16:50:00,SystemResetWarning,0834.4,4.99,000.00,027.9,025.2,000.0,036.1,029.1,27.9,0000.0,0011.52,0004.37,0003.64
2023-09-02 16:51:00,SystemResetWarning,0834.3,5.01,000.00,027.7,024.4,000.0,036.0,028.9,28.2,0000.0,0011.20,0004.36,0003.63
2023-09-02 16:52:00,SystemResetWarning,0834.3,5.02,000.00,027.7,024.6,000.0,036.0,029.0,27.9,0000.0,0010.81,0004.33,0003.61
2023-09-02 16:53:00,SystemResetWarning,0834.4,5.00,000.00,027.6,025.0,000.0,036.0,029.0,28.4,0000.0,0010.59,0004.33,0003.59
2023-09-02 16:54:00,SystemResetWarning,0834.4,5.00,000.00,027.7,025.4,000.0,036.0,029.2,27.4,0000.0,0010.08,0004.32,0003.58
2023-09-02 16:55:00,SystemResetWarning,0834.3,5.00,000.00,027.7,025.8,000.0,036.0,029.3,27.4,0000.0,0010.69,0004.32,0003.57
2023-09-02 16:56:00,SystemResetWarning,0834.3,5.00,000.00,027.8,026.1,000.0,036.1,029.5,27.7,0000.0,0011.27,0004.31,0003.55
2023-09-02 16:57:00,SystemResetWarning,0834.4,5.00,000.00,027.8,026.5,000.0,036.1,029.6,28.1,0000.0,0011.29,0004.28,0003.53
2023-09-02 16:58:00,SystemResetWarning,0834.4,5.00,000.00,027.9,026.4,000.0,036.1,029.6,28.0,0000.0,0011.44,0004.27,0003.53
2023-09-02 16:59:00,SystemResetWarning,0834.4,4.99,000.00,027.8,025.2,000.0,036.0,029.2,28.0,0000.0,0010.87,0004.27,0003.52
